Starlink 3177

operational
NORAD ID: 51138 Int'l Des: 2022-005 Owner: SPXS Country: US Constellation: starlink
LEOCIRCULAR

About Starlink 3177

Description loading...

Live Position

Loading 3D Globe...

Upcoming Passes

Altitude History

Altitude vs Time

uPlot chart will show altitude changes over time

Two-Line Element Set

1 51138U 22005AL 26061.04004067 .00001653 00000-0 12191-3 0 9995
2 51138 53.2184 333.4607 0001387 84.0779 276.0372 15.08847377227573
Epoch: Mar 2, 2026 • Age: 42 hours

Current Status

Altitude 553.6 km
Velocity 7.58 km/s
Sub-Earth Point -39.95°S, 145.17°W
Launch Date Jan 19, 2022
Age 4.1 years
Type internet

Technical Details

Classification Payload
Mass 297.00 kg
Dry Mass 275.00 kg
Total Mass 297.00 kg
Length 0.20 m
Diameter 2.80 m
Span 9.00 m
Shape Box + pan
Manufacturer SPXS
Bus Type Starlink
Phase Status In Orbit
Owner/State SPXS/US

Large Constellations

Loading constellations...